Year,Month,Day,Hour,Minute,Value (Times are PST for temperature in C)
2021,03,31,00,00,1.50
2021,03,31,00,01,1.50
2021,03,31,00,02,1.50
2021,03,31,00,03,1.40
2021,03,31,00,04,1.40
2021,03,31,00,05,1.40
2021,03,31,00,06,1.40
2021,03,31,00,07,1.40
2021,03,31,00,08,1.40
2021,03,31,00,09,1.40
2021,03,31,00,10,1.30
2021,03,31,00,11,1.30
2021,03,31,00,12,1.30
2021,03,31,00,13,1.30
2021,03,31,00,14,1.30
2021,03,31,00,15,1.30
2021,03,31,00,16,1.30
2021,03,31,00,17,1.30
2021,03,31,00,18,1.30
2021,03,31,00,19,1.30
2021,03,31,00,20,1.30
2021,03,31,00,21,1.30
2021,03,31,00,22,1.20
2021,03,31,00,23,1.20
2021,03,31,00,24,1.20
2021,03,31,00,25,1.20
2021,03,31,00,26,1.20
2021,03,31,00,27,1.20
2021,03,31,00,28,1.20
2021,03,31,00,29,1.20
2021,03,31,00,30,1.20
2021,03,31,00,31,1.20
2021,03,31,00,32,1.20
2021,03,31,00,33,1.20
2021,03,31,00,34,1.20
2021,03,31,00,35,1.20
2021,03,31,00,36,1.20
2021,03,31,00,37,1.20
2021,03,31,00,38,1.20
2021,03,31,00,39,1.10
2021,03,31,00,40,1.10
2021,03,31,00,41,1.10
2021,03,31,00,42,1.10
2021,03,31,00,43,1.10
2021,03,31,00,44,1.10
2021,03,31,00,45,1.10
2021,03,31,00,46,1.00
2021,03,31,00,47,1.00
2021,03,31,00,48,1.00
2021,03,31,00,49,1.00
2021,03,31,00,50,1.00
2021,03,31,00,51,1.00
2021,03,31,00,52,0.90
2021,03,31,00,53,0.90
2021,03,31,00,54,0.90
2021,03,31,00,55,0.90
2021,03,31,00,56,0.90
2021,03,31,00,57,0.90
2021,03,31,00,58,0.90
2021,03,31,00,59,0.90
2021,03,31,01,00,0.90
2021,03,31,01,01,0.90
2021,03,31,01,02,0.90
2021,03,31,01,03,0.90
2021,03,31,01,04,0.90
2021,03,31,01,05,0.90
2021,03,31,01,06,0.90
2021,03,31,01,07,0.90
2021,03,31,01,08,0.80
2021,03,31,01,09,0.80
2021,03,31,01,10,0.80
2021,03,31,01,11,0.80
2021,03,31,01,12,0.80
2021,03,31,01,13,0.80
2021,03,31,01,14,0.80
2021,03,31,01,15,0.80
2021,03,31,01,16,0.80
2021,03,31,01,17,0.80
2021,03,31,01,18,0.80
2021,03,31,01,19,0.70
2021,03,31,01,20,0.70
2021,03,31,01,21,0.60
2021,03,31,01,22,0.60
2021,03,31,01,23,0.50
2021,03,31,01,24,0.50
2021,03,31,01,25,0.50
2021,03,31,01,26,0.40
2021,03,31,01,27,0.40
2021,03,31,01,28,0.40
2021,03,31,01,29,0.40
2021,03,31,01,30,0.40
2021,03,31,01,31,0.40
2021,03,31,01,32,0.40
2021,03,31,01,33,0.40
2021,03,31,01,34,0.40
2021,03,31,01,35,0.40
2021,03,31,01,36,0.40
2021,03,31,01,37,0.30
2021,03,31,01,38,0.30
2021,03,31,01,39,0.30
2021,03,31,01,40,0.30
2021,03,31,01,41,0.30
2021,03,31,01,42,0.30
2021,03,31,01,43,0.30
2021,03,31,01,44,0.30
2021,03,31,01,45,0.30
2021,03,31,01,46,0.30
2021,03,31,01,47,0.30
2021,03,31,01,48,0.30
2021,03,31,01,49,0.30
2021,03,31,01,50,0.30
2021,03,31,01,51,0.30
2021,03,31,01,52,0.30
2021,03,31,01,53,0.30
2021,03,31,01,54,0.30
2021,03,31,01,55,0.30
2021,03,31,01,56,0.30
2021,03,31,01,57,0.30
2021,03,31,01,58,0.40
2021,03,31,01,59,0.40
2021,03,31,02,00,0.40
2021,03,31,02,01,0.40
2021,03,31,02,02,0.40
2021,03,31,02,03,0.40
2021,03,31,02,04,0.40
2021,03,31,02,05,0.40
2021,03,31,02,06,0.40
2021,03,31,02,07,0.40
2021,03,31,02,08,0.40
2021,03,31,02,09,0.40
2021,03,31,02,10,0.40
2021,03,31,02,11,0.40
2021,03,31,02,12,0.40
2021,03,31,02,13,0.40
2021,03,31,02,14,0.30
2021,03,31,02,15,0.30
2021,03,31,02,16,0.30
2021,03,31,02,17,0.30
2021,03,31,02,18,0.30
2021,03,31,02,19,0.30
2021,03,31,02,20,0.30
2021,03,31,02,21,0.30
2021,03,31,02,22,0.30
2021,03,31,02,23,0.30
2021,03,31,02,24,0.30
2021,03,31,02,25,0.20
2021,03,31,02,26,0.20
2021,03,31,02,27,0.20
2021,03,31,02,28,0.20
2021,03,31,02,29,0.20
2021,03,31,02,30,0.20
2021,03,31,02,31,0.20
2021,03,31,02,32,0.20
2021,03,31,02,33,0.20
2021,03,31,02,34,0.20
2021,03,31,02,35,0.20
2021,03,31,02,36,0.20
2021,03,31,02,37,0.20
2021,03,31,02,38,0.20
2021,03,31,02,39,0.30
2021,03,31,02,40,0.30
2021,03,31,02,41,0.30
2021,03,31,02,42,0.30
2021,03,31,02,43,0.30
2021,03,31,02,44,0.30
2021,03,31,02,45,0.30
2021,03,31,02,46,0.30
2021,03,31,02,47,0.30
2021,03,31,02,48,0.30
2021,03,31,02,49,0.30
2021,03,31,02,50,0.30
2021,03,31,02,51,0.30
2021,03,31,02,52,0.30
2021,03,31,02,53,0.30
2021,03,31,02,54,0.30
2021,03,31,02,55,0.30
2021,03,31,02,56,0.30
2021,03,31,02,57,0.30
2021,03,31,02,58,0.30
2021,03,31,02,59,0.30
2021,03,31,03,00,0.30
2021,03,31,03,01,0.30
2021,03,31,03,02,0.30
2021,03,31,03,03,0.30
2021,03,31,03,04,0.30
2021,03,31,03,05,0.30
2021,03,31,03,06,0.20
2021,03,31,03,07,0.20
2021,03,31,03,08,0.20
2021,03,31,03,09,0.20
2021,03,31,03,10,0.30
2021,03,31,03,11,0.20
2021,03,31,03,12,0.20
2021,03,31,03,13,0.20
2021,03,31,03,14,0.20
2021,03,31,03,15,0.20
2021,03,31,03,16,0.10
2021,03,31,03,17,0.10
2021,03,31,03,18,0.10
2021,03,31,03,19,0.20
2021,03,31,03,20,0.20
2021,03,31,03,21,0.20
2021,03,31,03,22,0.20
2021,03,31,03,23,0.20
2021,03,31,03,24,0.20
2021,03,31,03,25,0.20
2021,03,31,03,26,0.10
2021,03,31,03,27,0.10
2021,03,31,03,28,0.10
2021,03,31,03,29,0.10
2021,03,31,03,30,0.10
2021,03,31,03,31,0.10
2021,03,31,03,32,0.10
2021,03,31,03,33,0.10
2021,03,31,03,34,0.00
2021,03,31,03,35,0.00
2021,03,31,03,36,0.00
2021,03,31,03,37,0.00
2021,03,31,03,38,0.00
2021,03,31,03,39,0.00
2021,03,31,03,40,0.00
2021,03,31,03,41,0.00
2021,03,31,03,42,0.00
2021,03,31,03,43,0.00
2021,03,31,03,44,0.00
2021,03,31,03,45,0.00
2021,03,31,03,46,0.00
2021,03,31,03,47,0.00
2021,03,31,03,48,0.00
2021,03,31,03,49,0.00
2021,03,31,03,50,0.00
2021,03,31,03,51,0.00
2021,03,31,03,52,-0.10
2021,03,31,03,53,-0.10
2021,03,31,03,54,-0.10
2021,03,31,03,55,-0.10
2021,03,31,03,56,-0.20
2021,03,31,03,57,-0.20
2021,03,31,03,58,-0.20
2021,03,31,03,59,-0.20
2021,03,31,04,00,-0.20
2021,03,31,04,01,-0.10
2021,03,31,04,02,-0.10
2021,03,31,04,03,-0.10
2021,03,31,04,04,-0.10
2021,03,31,04,05,-0.10
2021,03,31,04,06,-0.10
2021,03,31,04,07,-0.10
2021,03,31,04,08,-0.10
2021,03,31,04,09,-0.20
2021,03,31,04,10,-0.20
2021,03,31,04,11,-0.20
2021,03,31,04,12,-0.20
2021,03,31,04,13,-0.30
2021,03,31,04,14,-0.30
2021,03,31,04,15,-0.30
2021,03,31,04,16,-0.30
2021,03,31,04,17,-0.30
2021,03,31,04,18,-0.30
2021,03,31,04,19,-0.30
2021,03,31,04,20,-0.30
2021,03,31,04,21,-0.30
2021,03,31,04,22,-0.30
2021,03,31,04,23,-0.30
2021,03,31,04,24,-0.30
2021,03,31,04,25,-0.30
2021,03,31,04,26,-0.30
2021,03,31,04,27,-0.30
2021,03,31,04,28,-0.40
2021,03,31,04,29,-0.40
2021,03,31,04,30,-0.40
2021,03,31,04,31,-0.40
2021,03,31,04,32,-0.40
2021,03,31,04,33,-0.40
2021,03,31,04,34,-0.40
2021,03,31,04,35,-0.40
2021,03,31,04,36,-0.40
2021,03,31,04,37,-0.40
2021,03,31,04,38,-0.40
2021,03,31,04,39,-0.40
2021,03,31,04,40,-0.40
2021,03,31,04,41,-0.40
2021,03,31,04,42,-0.40
2021,03,31,04,43,-0.40
2021,03,31,04,44,-0.40
2021,03,31,04,45,-0.40
2021,03,31,04,46,-0.30
2021,03,31,04,47,-0.20
2021,03,31,04,48,-0.10
2021,03,31,04,49,-0.10
2021,03,31,04,50,-0.10
2021,03,31,04,51,-0.10
2021,03,31,04,52,-0.10
2021,03,31,04,53,0.00
2021,03,31,04,54,0.00
2021,03,31,04,55,0.00
2021,03,31,04,56,0.10
2021,03,31,04,57,0.20
2021,03,31,04,58,0.30
2021,03,31,04,59,0.40
2021,03,31,05,00,0.40
2021,03,31,05,01,0.40
2021,03,31,05,02,0.50
2021,03,31,05,03,0.50
2021,03,31,05,04,0.60
2021,03,31,05,05,0.60
2021,03,31,05,06,0.70
2021,03,31,05,07,0.80
2021,03,31,05,08,0.80
2021,03,31,05,09,0.80
2021,03,31,05,10,0.80
2021,03,31,05,11,0.80
2021,03,31,05,12,0.90
2021,03,31,05,13,0.90
2021,03,31,05,14,0.90
2021,03,31,05,15,0.90
2021,03,31,05,16,0.90
2021,03,31,05,17,0.90
2021,03,31,05,18,1.00
2021,03,31,05,19,1.00
2021,03,31,05,20,1.10
2021,03,31,05,21,1.10
2021,03,31,05,22,1.10
2021,03,31,05,23,1.10
2021,03,31,05,24,1.00
2021,03,31,05,25,1.00
2021,03,31,05,26,0.90
2021,03,31,05,27,0.90
2021,03,31,05,28,0.90
2021,03,31,05,29,0.80
2021,03,31,05,30,0.70
2021,03,31,05,31,0.60
2021,03,31,05,32,0.50
2021,03,31,05,33,0.50
2021,03,31,05,34,0.40
2021,03,31,05,35,0.30
2021,03,31,05,36,0.30
2021,03,31,05,37,0.20
2021,03,31,05,38,0.20
2021,03,31,05,39,0.10
2021,03,31,05,40,0.10
2021,03,31,05,41,0.10
2021,03,31,05,42,0.10
2021,03,31,05,43,0.10
2021,03,31,05,44,0.10
2021,03,31,05,45,0.10
2021,03,31,05,46,0.10
2021,03,31,05,47,0.10
2021,03,31,05,48,0.00
2021,03,31,05,49,0.00
2021,03,31,05,50,0.00
2021,03,31,05,51,0.00
2021,03,31,05,52,0.00
2021,03,31,05,53,0.00
2021,03,31,05,54,-0.10
2021,03,31,05,55,0.00
2021,03,31,05,56,0.00
2021,03,31,05,57,0.00
2021,03,31,05,58,0.00
2021,03,31,05,59,0.00
2021,03,31,06,00,0.00
2021,03,31,06,01,0.10
2021,03,31,06,02,0.10
2021,03,31,06,03,0.20
2021,03,31,06,04,0.20
2021,03,31,06,05,0.20
2021,03,31,06,06,0.20
2021,03,31,06,07,0.20
2021,03,31,06,08,0.20
2021,03,31,06,09,0.20
2021,03,31,06,10,0.20
2021,03,31,06,11,0.20
2021,03,31,06,12,0.20
2021,03,31,06,13,0.20
2021,03,31,06,14,0.10
2021,03,31,06,15,0.10
2021,03,31,06,16,0.10
2021,03,31,06,17,0.10
2021,03,31,06,18,0.10
2021,03,31,06,19,0.10
2021,03,31,06,20,0.10
2021,03,31,06,21,0.10
2021,03,31,06,22,0.10
2021,03,31,06,23,0.10
2021,03,31,06,24,0.10
2021,03,31,06,25,0.10
2021,03,31,06,26,0.00
2021,03,31,06,27,0.00
2021,03,31,06,28,0.00
2021,03,31,06,29,-0.10
2021,03,31,06,30,-0.10
2021,03,31,06,31,-0.10
2021,03,31,06,32,-0.10
2021,03,31,06,33,-0.20
2021,03,31,06,34,-0.20
2021,03,31,06,35,-0.20
2021,03,31,06,36,-0.20
2021,03,31,06,37,-0.20
2021,03,31,06,38,-0.20
2021,03,31,06,39,-0.20
2021,03,31,06,40,-0.20
2021,03,31,06,41,-0.20
2021,03,31,06,42,-0.20
2021,03,31,06,43,-0.20
2021,03,31,06,44,-0.20
2021,03,31,06,45,-0.20
2021,03,31,06,46,-0.20
2021,03,31,06,47,-0.30
2021,03,31,06,48,-0.30
2021,03,31,06,49,-0.30
2021,03,31,06,50,-0.30
2021,03,31,06,51,-0.30
2021,03,31,06,52,-0.30
2021,03,31,06,53,-0.30
2021,03,31,06,54,-0.20
2021,03,31,06,55,-0.20
2021,03,31,06,56,-0.20
2021,03,31,06,57,-0.20
2021,03,31,06,58,-0.20
2021,03,31,06,59,-0.20
2021,03,31,07,00,-0.30
2021,03,31,07,01,-0.20
2021,03,31,07,02,-0.20
2021,03,31,07,03,-0.20
2021,03,31,07,04,-0.20
2021,03,31,07,05,-0.20
2021,03,31,07,06,-0.20
2021,03,31,07,07,-0.20
2021,03,31,07,08,-0.20
2021,03,31,07,09,-0.20
2021,03,31,07,10,-0.20
2021,03,31,07,11,-0.20
2021,03,31,07,12,-0.30
2021,03,31,07,13,-0.30
2021,03,31,07,14,-0.30
2021,03,31,07,15,-0.30
2021,03,31,07,16,-0.30
2021,03,31,07,17,-0.30
2021,03,31,07,18,-0.30
2021,03,31,07,19,-0.30
2021,03,31,07,20,-0.30
2021,03,31,07,21,-0.30
2021,03,31,07,22,-0.30
2021,03,31,07,23,-0.30
2021,03,31,07,24,-0.30
2021,03,31,07,25,-0.30
2021,03,31,07,26,-0.20
2021,03,31,07,27,-0.20
2021,03,31,07,28,-0.20
2021,03,31,07,29,-0.20
2021,03,31,07,30,-0.10
2021,03,31,07,31,-0.10
2021,03,31,07,32,-0.10
2021,03,31,07,33,-0.10
2021,03,31,07,34,-0.10
2021,03,31,07,35,0.00
2021,03,31,07,36,0.00
2021,03,31,07,37,0.10
2021,03,31,07,38,0.10
2021,03,31,07,39,0.10
2021,03,31,07,40,0.10
2021,03,31,07,41,0.10
2021,03,31,07,42,0.20
2021,03,31,07,43,0.20
2021,03,31,07,44,0.20
2021,03,31,07,45,0.30
2021,03,31,07,46,0.30
2021,03,31,07,47,0.30
2021,03,31,07,48,0.30
2021,03,31,07,49,0.40
2021,03,31,07,50,0.40
2021,03,31,07,51,0.40
2021,03,31,07,52,0.50
2021,03,31,07,53,0.50
2021,03,31,07,54,0.50
2021,03,31,07,55,0.60
2021,03,31,07,56,0.60
2021,03,31,07,57,0.60
2021,03,31,07,58,0.70
2021,03,31,07,59,0.70
2021,03,31,08,00,0.70
2021,03,31,08,01,0.80
2021,03,31,08,02,0.80
2021,03,31,08,03,0.90
2021,03,31,08,04,1.00
2021,03,31,08,05,1.00
2021,03,31,08,06,1.10
2021,03,31,08,07,1.20
2021,03,31,08,08,1.30
2021,03,31,08,09,1.40
2021,03,31,08,10,1.50
2021,03,31,08,11,1.60
2021,03,31,08,12,1.60
2021,03,31,08,13,1.70
2021,03,31,08,14,1.80
2021,03,31,08,15,1.80
2021,03,31,08,16,1.80
2021,03,31,08,17,1.90
2021,03,31,08,18,1.90
2021,03,31,08,19,2.00
2021,03,31,08,20,2.10
2021,03,31,08,21,2.20
2021,03,31,08,22,2.30
2021,03,31,08,23,2.40
2021,03,31,08,24,2.50
2021,03,31,08,25,2.70
2021,03,31,08,26,2.80
2021,03,31,08,27,2.90
2021,03,31,08,28,3.00
2021,03,31,08,29,3.10
2021,03,31,08,30,3.20
2021,03,31,08,31,3.30
2021,03,31,08,32,3.40
2021,03,31,08,33,3.50
2021,03,31,08,34,3.60
2021,03,31,08,35,3.60
2021,03,31,08,36,3.70
2021,03,31,08,37,3.80
2021,03,31,08,38,3.80
2021,03,31,08,39,3.90
2021,03,31,08,40,3.90
2021,03,31,08,41,4.00
2021,03,31,08,42,4.10
2021,03,31,08,43,4.20
2021,03,31,08,44,4.20
2021,03,31,08,45,4.30
2021,03,31,08,46,4.40
2021,03,31,08,47,4.50
2021,03,31,08,48,4.60
2021,03,31,08,49,4.70
2021,03,31,08,50,4.70
2021,03,31,08,51,4.80
2021,03,31,08,52,4.90
2021,03,31,08,53,4.90
2021,03,31,08,54,5.00
2021,03,31,08,55,5.10
2021,03,31,08,56,5.20
2021,03,31,08,57,5.20
2021,03,31,08,58,5.30
2021,03,31,08,59,5.30
2021,03,31,09,00,5.40
2021,03,31,09,01,5.40
2021,03,31,09,02,5.50
2021,03,31,09,03,5.60
2021,03,31,09,04,5.70
2021,03,31,09,05,5.80
2021,03,31,09,06,5.80
2021,03,31,09,07,5.80
2021,03,31,09,08,5.90
2021,03,31,09,09,6.00
2021,03,31,09,10,6.10
2021,03,31,09,11,6.20
2021,03,31,09,12,6.20
2021,03,31,09,13,6.30
2021,03,31,09,14,6.40
2021,03,31,09,15,6.40
2021,03,31,09,16,6.50
2021,03,31,09,17,6.60
2021,03,31,09,18,6.60
2021,03,31,09,19,6.70
2021,03,31,09,20,6.80
2021,03,31,09,21,6.90
2021,03,31,09,22,6.90
2021,03,31,09,23,7.00
2021,03,31,09,24,7.10
2021,03,31,09,25,7.10
2021,03,31,09,26,7.10
2021,03,31,09,27,7.20
2021,03,31,09,28,7.20
2021,03,31,09,29,7.20
2021,03,31,09,30,7.20
2021,03,31,09,31,7.30
2021,03,31,09,32,7.30
2021,03,31,09,33,7.30
2021,03,31,09,34,7.40
2021,03,31,09,35,7.50
2021,03,31,09,36,7.50
2021,03,31,09,37,7.60
2021,03,31,09,38,7.70
2021,03,31,09,39,7.80
2021,03,31,09,40,7.80
2021,03,31,09,41,7.80
2021,03,31,09,42,7.80
2021,03,31,09,43,7.80
2021,03,31,09,44,7.90
2021,03,31,09,45,7.90
2021,03,31,09,46,7.90
2021,03,31,09,47,7.80
2021,03,31,09,48,7.80
2021,03,31,09,49,7.80
2021,03,31,09,50,7.80
2021,03,31,09,51,7.80
2021,03,31,09,52,7.80
2021,03,31,09,53,7.90
2021,03,31,09,54,7.90
2021,03,31,09,55,7.90
2021,03,31,09,56,8.00
2021,03,31,09,57,8.10
2021,03,31,09,58,8.10
2021,03,31,09,59,8.10
2021,03,31,10,00,8.10
2021,03,31,10,01,8.20
2021,03,31,10,02,8.20
2021,03,31,10,03,8.20
2021,03,31,10,04,8.30
2021,03,31,10,05,8.30
2021,03,31,10,06,8.30
2021,03,31,10,07,8.30
2021,03,31,10,08,8.30
2021,03,31,10,09,8.30
2021,03,31,10,10,8.30
2021,03,31,10,11,8.20
2021,03,31,10,12,8.20
2021,03,31,10,13,8.30
2021,03,31,10,14,8.20
2021,03,31,10,15,8.20
2021,03,31,10,16,8.20
2021,03,31,10,17,8.20
2021,03,31,10,18,8.30
2021,03,31,10,19,8.30
2021,03,31,10,20,8.40
2021,03,31,10,21,8.40
2021,03,31,10,22,8.50
2021,03,31,10,23,8.60
2021,03,31,10,24,8.60
2021,03,31,10,25,8.60
2021,03,31,10,26,8.60
2021,03,31,10,27,8.60
2021,03,31,10,28,8.60
2021,03,31,10,29,8.60
2021,03,31,10,30,8.60
2021,03,31,10,31,8.60
2021,03,31,10,32,8.70
2021,03,31,10,33,8.80
2021,03,31,10,34,8.80
2021,03,31,10,35,8.90
2021,03,31,10,36,9.00
2021,03,31,10,37,8.90
2021,03,31,10,38,9.00
2021,03,31,10,39,9.00
2021,03,31,10,40,9.00
2021,03,31,10,41,9.10
2021,03,31,10,42,9.10
2021,03,31,10,43,9.10
2021,03,31,10,44,9.20
2021,03,31,10,45,9.20
2021,03,31,10,46,9.30
2021,03,31,10,47,9.40
2021,03,31,10,48,9.40
2021,03,31,10,49,9.50
2021,03,31,10,50,9.50
2021,03,31,10,51,9.60
2021,03,31,10,52,9.60
2021,03,31,10,53,9.60
2021,03,31,10,54,9.70
2021,03,31,10,55,9.70
2021,03,31,10,56,9.70
2021,03,31,10,57,9.80
2021,03,31,10,58,9.80
2021,03,31,10,59,9.80
2021,03,31,11,00,9.90
2021,03,31,11,01,10.00
2021,03,31,11,02,10.00
2021,03,31,11,03,10.00
2021,03,31,11,04,9.90
2021,03,31,11,05,9.90
2021,03,31,11,06,9.90
2021,03,31,11,07,10.00
2021,03,31,11,08,10.00
2021,03,31,11,09,10.00
2021,03,31,11,10,9.90
2021,03,31,11,11,9.90
2021,03,31,11,12,10.00
2021,03,31,11,13,10.00
2021,03,31,11,14,9.90
2021,03,31,11,15,9.90
2021,03,31,11,16,9.90
2021,03,31,11,17,10.00
2021,03,31,11,18,10.00
2021,03,31,11,19,10.00
2021,03,31,11,20,9.90
2021,03,31,11,21,9.90
2021,03,31,11,22,9.90
2021,03,31,11,23,9.90
2021,03,31,11,24,9.80
2021,03,31,11,25,9.80
2021,03,31,11,26,9.90
2021,03,31,11,27,9.80
2021,03,31,11,28,9.90
2021,03,31,11,29,9.90
2021,03,31,11,30,9.90
2021,03,31,11,31,10.00
2021,03,31,11,32,10.00
2021,03,31,11,33,10.00
2021,03,31,11,34,10.10
2021,03,31,11,35,10.10
2021,03,31,11,36,10.10
2021,03,31,11,37,10.10
2021,03,31,11,38,10.10
2021,03,31,11,39,10.20
2021,03,31,11,40,10.20
2021,03,31,11,41,10.20
2021,03,31,11,42,10.20
2021,03,31,11,43,10.20
2021,03,31,11,44,10.20
2021,03,31,11,45,10.20
2021,03,31,11,46,10.20
2021,03,31,11,47,10.20
2021,03,31,11,48,10.30
2021,03,31,11,49,10.30
2021,03,31,11,50,10.30
2021,03,31,11,51,10.30
2021,03,31,11,52,10.30
2021,03,31,11,53,10.40
2021,03,31,11,54,10.40
2021,03,31,11,55,10.40
2021,03,31,11,56,10.30
2021,03,31,11,57,10.30
2021,03,31,11,58,10.30
2021,03,31,11,59,10.30
2021,03,31,12,00,10.30
2021,03,31,12,01,10.30
2021,03,31,12,02,10.30
2021,03,31,12,03,10.30
2021,03,31,12,04,10.20
2021,03,31,12,05,10.20
2021,03,31,12,06,10.20
2021,03,31,12,07,10.20
2021,03,31,12,08,10.20
2021,03,31,12,09,10.30
2021,03,31,12,10,10.30
2021,03,31,12,11,10.40
2021,03,31,12,12,10.40
2021,03,31,12,13,10.50
2021,03,31,12,14,10.50
2021,03,31,12,15,10.60
2021,03,31,12,16,10.60
2021,03,31,12,17,10.60
2021,03,31,12,18,10.60
2021,03,31,12,19,10.60
2021,03,31,12,20,10.60
2021,03,31,12,21,10.60
2021,03,31,12,22,10.60
2021,03,31,12,23,10.60
2021,03,31,12,24,10.60
2021,03,31,12,25,10.60
2021,03,31,12,26,10.60
2021,03,31,12,27,10.70
2021,03,31,12,28,10.70
2021,03,31,12,29,10.70
2021,03,31,12,30,10.70
2021,03,31,12,31,10.70
2021,03,31,12,32,10.70
2021,03,31,12,33,10.70
2021,03,31,12,34,10.70
2021,03,31,12,35,10.70
2021,03,31,12,36,10.60
2021,03,31,12,37,10.60
2021,03,31,12,38,10.60
2021,03,31,12,39,10.60
2021,03,31,12,40,10.60
2021,03,31,12,41,10.60
2021,03,31,12,42,10.70
2021,03,31,12,43,10.70
2021,03,31,12,44,10.70
2021,03,31,12,45,10.70
2021,03,31,12,46,10.70
2021,03,31,12,47,10.70
2021,03,31,12,48,10.70
2021,03,31,12,49,10.70
2021,03,31,12,50,10.70
2021,03,31,12,51,10.60
2021,03,31,12,52,10.60
2021,03,31,12,53,10.60
2021,03,31,12,54,10.60
2021,03,31,12,55,10.60
2021,03,31,12,56,10.60
2021,03,31,12,57,10.60
2021,03,31,12,58,10.60
2021,03,31,12,59,10.60
2021,03,31,13,00,10.60
2021,03,31,13,01,10.60
2021,03,31,13,02,10.60
2021,03,31,13,03,10.60
2021,03,31,13,04,10.70
2021,03,31,13,05,10.70
2021,03,31,13,06,10.70
2021,03,31,13,07,10.70
2021,03,31,13,08,10.80
2021,03,31,13,09,10.80
2021,03,31,13,10,10.90
2021,03,31,13,11,10.90
2021,03,31,13,12,10.90
2021,03,31,13,13,10.90
2021,03,31,13,14,10.90
2021,03,31,13,15,10.90
2021,03,31,13,16,10.90
2021,03,31,13,17,10.80
2021,03,31,13,18,10.80
2021,03,31,13,19,10.80
2021,03,31,13,20,10.70
2021,03,31,13,21,10.70
2021,03,31,13,22,10.70
2021,03,31,13,23,10.70
2021,03,31,13,24,10.70
2021,03,31,13,25,10.70
2021,03,31,13,26,10.70
2021,03,31,13,27,10.70
2021,03,31,13,28,10.70
2021,03,31,13,29,10.70
2021,03,31,13,30,10.70
2021,03,31,13,31,10.60
2021,03,31,13,32,10.50
2021,03,31,13,33,10.50
2021,03,31,13,34,10.40
2021,03,31,13,35,10.40
2021,03,31,13,36,10.30
2021,03,31,13,37,10.30
2021,03,31,13,38,10.30
2021,03,31,13,39,10.30
2021,03,31,13,40,10.30
2021,03,31,13,41,10.30
2021,03,31,13,42,10.40
2021,03,31,13,43,10.50
2021,03,31,13,44,10.50
2021,03,31,13,45,10.60
2021,03,31,13,46,10.70
2021,03,31,13,47,10.70
2021,03,31,13,48,10.70
2021,03,31,13,49,10.70
2021,03,31,13,50,10.80
2021,03,31,13,51,10.80
2021,03,31,13,52,10.80
2021,03,31,13,53,10.90
2021,03,31,13,54,10.90
2021,03,31,13,55,11.00
2021,03,31,13,56,11.10
2021,03,31,13,57,11.20
2021,03,31,13,58,11.20
2021,03,31,13,59,11.30
2021,03,31,14,00,11.30
2021,03,31,14,01,11.40
2021,03,31,14,02,11.40
2021,03,31,14,03,11.50
2021,03,31,14,04,11.60
2021,03,31,14,05,11.60
2021,03,31,14,06,11.70
2021,03,31,14,07,11.70
2021,03,31,14,08,11.70
2021,03,31,14,09,11.70
2021,03,31,14,10,11.60
2021,03,31,14,11,11.60
2021,03,31,14,12,11.60
2021,03,31,14,13,11.60
2021,03,31,14,14,11.50
2021,03,31,14,15,11.40
2021,03,31,14,16,11.40
2021,03,31,14,17,11.40
2021,03,31,14,18,11.40
2021,03,31,14,19,11.40
2021,03,31,14,20,11.40
2021,03,31,14,21,11.40
2021,03,31,14,22,11.40
2021,03,31,14,23,11.50
2021,03,31,14,24,11.50
2021,03,31,14,25,11.60
2021,03,31,14,26,11.60
2021,03,31,14,27,11.60
2021,03,31,14,28,11.60
2021,03,31,14,29,11.60
2021,03,31,14,30,11.60
2021,03,31,14,31,11.60
2021,03,31,14,32,11.60
2021,03,31,14,33,11.60
2021,03,31,14,34,11.60
2021,03,31,14,35,11.60
2021,03,31,14,36,11.60
2021,03,31,14,37,11.70
2021,03,31,14,38,11.70
2021,03,31,14,39,11.80
2021,03,31,14,40,11.80
2021,03,31,14,41,11.90
2021,03,31,14,42,11.90
2021,03,31,14,43,11.90
2021,03,31,14,44,12.00
2021,03,31,14,45,12.00
2021,03,31,14,46,12.00
2021,03,31,14,47,12.10
2021,03,31,14,48,12.10
2021,03,31,14,49,12.20
2021,03,31,14,50,12.20
2021,03,31,14,51,12.20
2021,03,31,14,52,12.30
2021,03,31,14,53,12.40
2021,03,31,14,54,12.40
2021,03,31,14,55,12.40
2021,03,31,14,56,12.40
2021,03,31,14,57,12.40
2021,03,31,14,58,12.50
2021,03,31,14,59,12.50
2021,03,31,15,00,12.50
2021,03,31,15,01,12.50
2021,03,31,15,02,12.50
2021,03,31,15,03,12.40
2021,03,31,15,04,12.40
2021,03,31,15,05,12.40
2021,03,31,15,06,12.40
2021,03,31,15,07,12.40
2021,03,31,15,08,12.40
2021,03,31,15,09,12.40
2021,03,31,15,10,12.50
2021,03,31,15,11,12.40
2021,03,31,15,12,12.40
2021,03,31,15,13,12.40
2021,03,31,15,14,12.50
2021,03,31,15,15,12.50
2021,03,31,15,16,12.50
2021,03,31,15,17,12.50
2021,03,31,15,18,12.50
2021,03,31,15,19,12.60
2021,03,31,15,20,12.60
2021,03,31,15,21,12.60
2021,03,31,15,22,12.60
2021,03,31,15,23,12.60
2021,03,31,15,24,12.60
2021,03,31,15,25,12.60
2021,03,31,15,26,12.70
2021,03,31,15,27,12.70
2021,03,31,15,28,12.70
2021,03,31,15,29,12.70
2021,03,31,15,30,12.60
2021,03,31,15,31,12.60
2021,03,31,15,32,12.50
2021,03,31,15,33,12.40
2021,03,31,15,34,12.40
2021,03,31,15,35,12.40
2021,03,31,15,36,12.40
2021,03,31,15,37,12.40
2021,03,31,15,38,12.40
2021,03,31,15,39,12.40
2021,03,31,15,40,12.40
2021,03,31,15,41,12.40
2021,03,31,15,42,12.40
2021,03,31,15,43,12.30
2021,03,31,15,44,12.30
2021,03,31,15,45,12.30
2021,03,31,15,46,12.30
2021,03,31,15,47,12.30
2021,03,31,15,48,12.20
2021,03,31,15,49,12.20
2021,03,31,15,50,12.10
2021,03,31,15,51,12.10
2021,03,31,15,52,12.10
2021,03,31,15,53,12.00
2021,03,31,15,54,12.00
2021,03,31,15,55,12.00
2021,03,31,15,56,12.00
2021,03,31,15,57,11.90
2021,03,31,15,58,11.90
2021,03,31,15,59,11.80
2021,03,31,16,00,11.80
2021,03,31,16,01,11.80
2021,03,31,16,02,11.80
2021,03,31,16,03,11.80
2021,03,31,16,04,11.80
2021,03,31,16,05,11.70
2021,03,31,16,06,11.70
2021,03,31,16,07,11.70
2021,03,31,16,08,11.60
2021,03,31,16,09,11.60
2021,03,31,16,10,11.70
2021,03,31,16,11,11.70
2021,03,31,16,12,11.70
2021,03,31,16,13,11.60
2021,03,31,16,14,11.60
2021,03,31,16,15,11.60
2021,03,31,16,16,11.60
2021,03,31,16,17,11.70
2021,03,31,16,18,11.70
2021,03,31,16,19,11.70
2021,03,31,16,20,11.70
2021,03,31,16,21,11.70
2021,03,31,16,22,11.70
2021,03,31,16,23,11.70
2021,03,31,16,24,11.70
2021,03,31,16,25,11.70
2021,03,31,16,26,11.70
2021,03,31,16,27,11.70
2021,03,31,16,28,11.70
2021,03,31,16,29,11.70
2021,03,31,16,30,11.70
2021,03,31,16,31,11.70
2021,03,31,16,32,11.70
2021,03,31,16,33,11.70
2021,03,31,16,34,11.70
2021,03,31,16,35,11.70
2021,03,31,16,36,11.70
2021,03,31,16,37,11.70
2021,03,31,16,38,11.80
2021,03,31,16,39,11.70
2021,03,31,16,40,11.70
2021,03,31,16,41,11.70
2021,03,31,16,42,11.70
2021,03,31,16,43,11.70
2021,03,31,16,44,11.70
2021,03,31,16,45,11.70
2021,03,31,16,46,11.70
2021,03,31,16,47,11.70
2021,03,31,16,48,11.60
2021,03,31,16,49,11.60
2021,03,31,16,50,11.60
2021,03,31,16,51,11.60
2021,03,31,16,52,11.60
2021,03,31,16,53,11.50
2021,03,31,16,54,11.50
2021,03,31,16,55,11.40
2021,03,31,16,56,11.40
2021,03,31,16,57,11.40
2021,03,31,16,58,11.40
2021,03,31,16,59,11.40
2021,03,31,17,00,11.30
2021,03,31,17,01,11.30
2021,03,31,17,02,11.30
2021,03,31,17,03,11.30
2021,03,31,17,04,11.30
2021,03,31,17,05,11.20
2021,03,31,17,06,11.20
2021,03,31,17,07,11.20
2021,03,31,17,08,11.20
2021,03,31,17,09,11.20
2021,03,31,17,10,11.20
2021,03,31,17,11,11.20
2021,03,31,17,12,11.20
2021,03,31,17,13,11.20
2021,03,31,17,14,11.20
2021,03,31,17,15,11.20
2021,03,31,17,16,11.20
2021,03,31,17,17,11.20
2021,03,31,17,18,11.10
2021,03,31,17,19,11.10
2021,03,31,17,20,11.10
2021,03,31,17,21,11.10
2021,03,31,17,22,11.10
2021,03,31,17,23,11.10
2021,03,31,17,24,11.10
2021,03,31,17,25,11.10
2021,03,31,17,26,11.10
2021,03,31,17,27,11.10
2021,03,31,17,28,11.10
2021,03,31,17,29,11.10
2021,03,31,17,30,11.10
2021,03,31,17,31,11.10
2021,03,31,17,32,11.10
2021,03,31,17,33,11.10
2021,03,31,17,34,11.10
2021,03,31,17,35,11.00
2021,03,31,17,36,11.00
2021,03,31,17,37,11.00
2021,03,31,17,38,10.90
2021,03,31,17,39,10.90
2021,03,31,17,40,10.90
2021,03,31,17,41,10.90
2021,03,31,17,42,10.90
2021,03,31,17,43,10.90